Regional Weather Roundup
Issued by NWS Goodland, KS

Home | Current Version | Previous Version | Graphics & Text | Print | Product List | Glossary Off
Versions: 1 2 3 4 5 6 7 8 9 10 11 12 13 14 15 16 17 18 19 20 21 22 23 24 25 26 27 28 29 30 31 32 33 34 35 36 37 38 39 40 41 42 43 44 45 46 47 48 49 50

000
ASUS43 KGLD 270408
RWRGLD

GOODLAND FORECAST AREA HOURLY WEATHER ROUNDUP
NATIONAL WEATHER SERVICE GOODLAND KS
900 PM MST THU FEB 26 2015

...OFFICIAL OBSERVATIONS...

CITY           SKY/WX    TMP DP  RH WIND       PRES   REMARKS
GOODLAND KS    CLOUDY    17   3  54 E8        30.33R
HILL CITY KS   FAIR       6  -5  60 E5        30.47R
IMPERIAL NEB     N/A      9  -2  61 NE8       30.38R
MCCOOK NEB     CLEAR     10  -3  55 NE5       30.45R
AKRON CO       CLOUDY    12   8  84 SE12      30.22S FOG     WCI  -2
BURLINGTON CO  CLOUDY    15   8  73 E6        30.28S
LIMON CO       LGT SNOW  10   7  87 S15       30.17S FOG     WCI  -7
$$

...UNOFFICIAL OBSERVATIONS...

CITY           SKY/WX    TMP DP  RH WIND       PRES   REMARKS
COLBY KS       PTCLDY    14   9  79 E6        30.39R
GOVE KS          N/A     11  32 100 MISG        N/A
LENORA KS        N/A      9  32 100 CALM        N/A
NORTON KS      CLEAR      7  -9  47 NE6       30.45R
SHARON SPRINGS   N/A     17  10  74 CALM        N/A
KIT CARSON CO    N/A     14  10  85 MISG        N/A
YUMA CO          N/A     14   9  81 N7          N/A
$$



USA.gov is the U.S. government's official web portal to all federal, state and local government web resources and services.